Location: Joplin, MO
(37.0842°N, 94.5133°W)
Time: 17:16:43
(UTC+02:00)

Explorer 7 - All Passes

Search period start: 30 March 2023 00:00
Search period end: 09 April 2023 00:00
Orbit: 478 x 657 km, 50.3° (Epoch: 30 March)

Date Brightness Start Highest point End Pass type
(mag) Time Alt. Az. Time Alt. Az. Time Alt. Az.
30 Mar - 00:09:42 10° W 00:13:48 30° NNW 00:17:45 10° NE daylight
30 Mar - 01:52:39 10° NW 01:55:08 15° N 01:57:33 10° NNE daylight
30 Mar - 03:33:53 10° NNW 03:36:44 17° NNE 03:39:30 10° ENE visible
30 Mar - 05:13:39 10° NW 05:17:42 55° NE 05:21:31 10° ESE visible
30 Mar - 06:54:44 10° W 06:57:32 18° SW 07:00:13 10° S night (unlit)
30 Mar - 20:51:23 10° SSE 20:53:40 13° SE 20:55:55 10° E daylight
30 Mar - 22:28:42 10° SW 22:33:26 85° SE 22:37:59 10° NE daylight
31 Mar - 00:10:20 10° WNW 00:14:06 24° NNW 00:17:45 10° NNE daylight
31 Mar - 01:53:13 10° NW 01:55:34 14° N 01:57:53 10° NNE daylight
31 Mar - 03:33:52 10° NNW 03:37:07 21° NNE 03:40:13 10° ENE visible
31 Mar - 05:13:43 10° NW 05:17:51 85° NE 05:21:45 10° SE visible
31 Mar - 06:56:12 10° WSW 06:57:25 11° SW 06:58:38 10° SW night (unlit)
31 Mar - 20:50:02 10° S 20:53:34 21° SE 20:57:04 10° E daylight
31 Mar - 22:28:50 10° WSW 22:33:32 66° NW 22:38:05 10° NE daylight
01 Apr - 00:11:00 10° WNW 00:14:26 20° NNW 00:17:45 10° NNE daylight
01 Apr - 01:53:36 10° NNW 01:56:01 14° N 01:58:22 10° NE daylight
01 Apr - 03:33:50 10° NW 03:37:26 26° NNE 03:40:51 10° E visible
01 Apr - 05:13:51 10° WNW 05:17:55 61° SW 05:21:45 10° SE visible
01 Apr - 20:49:18 10° SSW 20:53:31 32° SE 20:57:38 10° ENE daylight
01 Apr - 22:29:08 10° WSW 22:33:41 47° NNW 22:38:06 10° NE daylight
02 Apr - 00:11:42 10° NW 00:14:47 17° NNW 00:17:47 10° NNE daylight
02 Apr - 01:53:48 10° NNW 01:56:25 15° N 01:58:57 10° NE daylight
02 Apr - 03:33:47 10° NW 03:37:42 34° NNE 03:41:24 10° E visible
02 Apr - 05:14:06 10° WNW 05:17:55 37° SW 05:21:32 10° SSE visible
02 Apr - 20:48:54 10° SSW 20:53:29 48° SE 20:57:58 10° ENE daylight
02 Apr - 22:29:32 10° W 22:33:51 35° NNW 22:38:03 10° NE daylight
03 Apr - 00:12:21 10° NW 00:15:09 16° N 00:17:53 10° NNE daylight
03 Apr - 01:53:52 10° NNW 01:56:47 17° NNE 01:59:36 10° NE daylight
03 Apr - 03:33:44 10° NW 03:37:53 47° NNE 03:41:47 10° ESE visible
03 Apr - 05:14:32 10° WNW 05:17:50 23° SW 05:20:59 10° S visible
03 Apr - 19:12:32 10° SE 19:13:49 11° SE 19:15:05 10° ESE daylight
03 Apr - 20:48:43 10° SW 20:53:28 73° SE 20:58:07 10° NE daylight
03 Apr - 22:30:02 10° W 22:34:04 27° NNW 22:38:00 10° NE daylight
04 Apr - 00:12:53 10° NW 00:15:31 15° N 00:18:05 10° NNE daylight
04 Apr - 01:53:51 10° NNW 01:57:07 20° NNE 02:00:16 10° ENE daylight
04 Apr - 03:33:43 10° NW 03:38:00 71° NE 03:42:00 10° ESE visible
04 Apr - 05:15:21 10° W 05:17:41 15° SW 05:19:56 10° SSW visible
04 Apr - 19:10:29 10° S 19:13:38 18° SE 19:16:45 10° E daylight
04 Apr - 20:48:43 10° SW 20:53:29 78° NW 20:58:10 10° NE daylight
04 Apr - 22:30:36 10° WNW 22:34:19 22° NNW 22:37:56 10° NNE daylight
05 Apr - 00:13:17 10° NW 00:15:53 15° N 00:18:25 10° NE daylight
05 Apr - 01:53:46 10° NNW 01:57:24 24° NNE 02:00:51 10° ENE daylight
05 Apr - 03:33:45 10° NW 03:38:01 76° SW 03:42:02 10° SE visible
05 Apr - 19:09:29 10° S 19:13:28 27° SE 19:17:26 10° ENE daylight
05 Apr - 20:48:52 10° WSW 20:53:33 55° NNW 20:58:08 10° NE daylight
05 Apr - 22:31:12 10° WNW 22:34:36 19° NNW 22:37:53 10° NNE daylight
06 Apr - 00:13:30 10° NNW 00:16:14 15° N 00:18:53 10° NE daylight
06 Apr - 01:53:39 10° NW 01:57:36 31° NNE 02:01:22 10° E daylight
06 Apr - 03:33:51 10° WNW 03:37:58 47° SW 03:41:50 10° SSE visible
06 Apr - 19:08:53 10° SSW 19:13:20 40° SE 19:17:46 10° ENE daylight
06 Apr - 20:49:08 10° W 20:53:38 40° NNW 20:58:03 10° NE daylight
06 Apr - 22:31:47 10° NW 22:34:52 17° N 22:37:53 10° NNE daylight
07 Apr - 00:13:34 10° NNW 00:16:33 17° N 00:19:27 10° NE daylight
07 Apr - 01:53:32 10° NW 01:57:45 42° NNE 02:01:43 10° ESE daylight
07 Apr - 03:34:06 10° WNW 03:37:51 30° SW 03:41:24 10° SSE visible
07 Apr - 19:08:32 10° SW 19:13:14 60° SE 19:17:55 10° ENE daylight
07 Apr - 20:49:31 10° W 20:53:46 31° NNW 20:57:56 10° NE daylight
07 Apr - 22:32:18 10° NW 22:35:11 16° N 22:37:59 10° NNE daylight
08 Apr - 00:13:31 10° NNW 00:16:49 19° NNE 00:20:01 10° ENE daylight
08 Apr - 01:53:25 10° NW 01:57:49 60° NE 02:01:56 10° ESE daylight
08 Apr - 03:34:35 10° W 03:37:39 19° SW 03:40:34 10° S visible
08 Apr - 17:30:54 10° SSE 17:33:26 14° SE 17:35:58 10° E daylight
08 Apr - 19:08:23 10° SW 19:13:09 89° SSE 19:17:56 10° NE daylight
08 Apr - 20:49:58 10° WNW 20:53:55 25° NNW 20:57:48 10° NE daylight
08 Apr - 22:32:41 10° NW 22:35:28 15° N 22:38:12 10° NE daylight
